"Pseudo-MPEC" for CEJA2Y2

Created 2026 Apr 16 23:35:07 UT using Find_Orb

Click here for an explanation of pseudo-MPECs

 
 Astrometry: 
     CEJA2Y2*1C2026 04 16.22784510 34 36.311+09 02 52.76   ~4G65 20.38GVNEOCPG96
     CEJA2Y2 1C2026 04 16.23310410 34 40.969+09 04 57.29   ~4G65 20.25GVNEOCPG96
     CEJA2Y2 1C2026 04 16.23837910 34 45.728+09 07 05.23   ~4G65 19.67GVNEOCPG96
     CEJA2Y2  C2026 04 16.27238810 35 15.866+09 20 32.13   ~4G7K 20.1 GWNEOCPH01
     CEJA2Y2 1C2026 04 16.27479610 35 18.798+09 21 38.27   ~4G6o 20.06GVNEOCPI52
     CEJA2Y2 1C2026 04 16.27544910 35 19.414+09 21 54.36   ~4G6o 19.95GVNEOCPI52
     CEJA2Y2  C2026 04 16.27592810 35 19.120+09 21 56.83   ~4G7K 19.8 GWNEOCPH01
     CEJA2Y2 1C2026 04 16.27609810 35 19.982+09 22 09.80   ~4G6o 20.23GVNEOCPI52
     CEJA2Y2 1C2026 04 16.27675010 35 20.598+09 22 25.00   ~4G6o 20.31GVNEOCPI52
     CEJA2Y2  C2026 04 16.28688610 35 29.240+09 26 19.24   ~4G7K 19.4 GWNEOCPH01
     CEJA2Y2  C2026 04 16.29310810 35 35.011+09 28 48.23   ~4G7K 20.6 GWNEOCPH01
     CEJA2Y2 1C2026 04 16.33397510 36 13.849+09 45 15.26   ~4G8K 19.73GVNEOCPI52
     CEJA2Y2 1C2026 04 16.33462710 36 14.440+09 45 30.92   ~4G8K 19.84GVNEOCPI52
     CEJA2Y2 1C2026 04 16.33527910 36 15.066+09 45 47.12   ~4G8K       VNEOCPI52
     CEJA2Y2 1C2026 04 16.33594110 36 15.714+09 46 03.32   ~4G8K 20.02GVNEOCPI52
     CEJA2Y2 KB2026 04 16.86208210 45 30.67 +13 17 35.1    ~4GLK 19.9 GVNEOCPL01
     CEJA2Y2 KB2026 04 16.86507710 45 33.50 +13 18 48.2    ~4GLK 20.0 GVNEOCPL01
     CEJA2Y2 KB2026 04 16.86807910 45 36.40 +13 20 00.4    ~4GLK 20.3 GVNEOCPL01
     CEJA2Y2 KC2026 04 16.87598210 45 44.69 +13 23 17.7    ~4GLo 19.4 GVNEOCP104
     CEJA2Y2 KC2026 04 16.88289110 45 51.29 +13 26 03.4    ~4GLo 19.3 GVNEOCP104
     CEJA2Y2 KC2026 04 16.88973410 45 57.84 +13 28 48.6    ~4GLo 19.7 GVNEOCP104
     CEJA2Y2 KC2026 04 16.89947910 46 07.920+13 32 32.28   ~4GMKx19.5 GWNEOCP151
     CEJA2Y2 KC2026 04 16.90086810 46 05.282+13 31 28.85   ~4GMKx20.3 GWNEOCP151
     CEJA2Y2 1C2026 04 16.90327010 46 11.255+13 33 45.10   ~4GMKx20.0 GXNEOCP033
     CEJA2Y2 1C2026 04 16.90389010 46 11.834+13 33 59.80   ~4GMKx19.8 GXNEOCP033
     CEJA2Y2 1C2026 04 16.90449010 46 12.436+13 34 14.30   ~4GMKx20.1 GXNEOCP033
     CEJA2Y2 1C2026 04 16.90508010 46 13.015+13 34 28.70   ~4GMKx19.7 GXNEOCP033
     CEJA2Y2 KB2026 04 16.96120210 47 09.60 +13 57 31.1    ~4GNZx19.9 GVNEOCPI93
     CEJA2Y2 KB2026 04 16.96644010 47 14.71 +13 59 37.7    ~4GNZx19.9 GVNEOCPI93
     CEJA2Y2 KB2026 04 16.97091810 47 19.03 +14 01 24.7    ~4GNZx19.6 GVNEOCPI93

Station data:
(033) Karl Schwarzschild Observatory, Tautenburg  (N50.980139 E11.711240)
   Germany.  Observer B. Stecklum. 1.34-m f/3 Schmidt + CCD.
(104) San Marcello Pistoiese  (N44.064178 E10.803750)  Italy.  Observers P.
   Bacci, M. Maestripieri. Measurers P. Bacci, L. Tesi, G. Fagioli. 0.60-m
   reflector + CCD.
(151) Eschenberg Observatory, Winterthur  (N47.476028 E8.744000)  Switzerland.
     Observer D. Luongo. 0.6-m f/3.8 Astrograph + CCD.
(G96) Mt. Lemmon Survey  (N32.442729 W110.788720)  US/Arizona.  Observer E.
   J. Christensen. Measurers T. Beuden, V. F. Carvajal, D. Fay, J. B.
   Fazekas, D. C. Fuls, A. R. Gibbs, A. D. Grauer, H. Gröller, J. K. Hogan,
   R. A. Kowalski, S. M. Larson, G. J. Leonard, D. Rankin, R. L. Seaman, F.
   C. Shelly, K. W. Wierzchoś. 1.5-m reflector + 10K CCD.
(H01) Magdalena Ridge Observatory, Socorro  (N33.984833 W107.189333)  US/New
   Mexico.  Observers W. H. Ryan, E. V. Ryan. Measurer W. H. Ryan. 2.4-m
   f/8.9 reflector + CCD.
(I52) Steward Observatory, Mt. Lemmon Station  (N32.442570 W110.788920)
   US/Arizona. Measurers T. Beuden, V. F. Carvajal, D. Fay, J. B. Fazekas, D.
   C. Fuls, A. R. Gibbs, A. D. Grauer, H. Gröller, J. K. Hogan, R. A.
   Kowalski, S. M. Larson, G. J. Leonard, D. Rankin, R. L. Seaman, F. C.
   Shelly, K. W. Wierzchoś. 1.0-m prime focus + CCD.
(I93) St Pardon de Conques  (N44.558670 W0.202960)  France.  Observers F.
   Losse, W. D'Anna. Measurer F. Losse. 0.40-m f/3.7 reflector + CCD.
(L01) Višnjan Observatory, Tičan  (N45.290897 E13.749300)  Croatia.
   Observers K. Korlević, L. Poropat. Measurer K. Korlevic. 1.0-m f/2.9
   reflector + CCD.

Orbital elements:  CEJA2Y2
   Perihelion 2026 Apr 13.388395 +/- 0.162 TT =  9:19:17.3 (JD 2461143.888395)
Epoch 2026 Apr 17.0 TT = JDT 2461147.5   Earth MOID: 0.0192   Ma: 0.0139
M   2.647070224 +/- 0.12            (J2000 ecliptic)             AutoNEOCP
n   0.732934616 +/- 0.00175         Peri.  357.104782 +/- 0.16
a   1.218313976 +/- 0.00194         Node   204.656390 +/- 0.0037
e   0.16099740 +/- 0.00128          Incl.   12.084147 +/- 0.032
P   1.345/491.167d         H 26.12  G  0.15   U  8.5
q 1.022168587 +/- 7.36e-5    Q 1.414459365 +/- 0.00381
21 of 30 observations 2026 Apr. 16 (15.9 hr); mean residual 0".36
Residuals in arcseconds: 
260416 G96  .61+  .91+    260416 H01  .04-  .08-    260416 104  .01-  .52-    
260416 G96  .42-  .90-    260416 I52  .12+  .36-    260416 151( .73-  3.2+)   
260416 G96  .28-  .35+    260416 I52  .28-  .30-    260416 151(58.8- 93.8-)   
260416 H01  .08+  .14+    260416 I52  .16-  .31+    260416 033( .07-  .62+)   
260416 I52  .03-  .41-    260416 I52  .14+  .68+    260416 033( .43-  .38+)   
260416 I52  .24+  .02+    260416 L01  .15+  .17-    260416 033( .17-  .42+)   
260416 H01  .03+  .02+    260416 L01  .37-  .55+    260416 033( .11-  .60+)   
260416 I52  .14-  .10-    260416 L01  .02+  .23+    260416 I93( .05-  .03-)   
260416 I52  .14+  .53-    260416 104  .18+  .54+    260416 I93( .09+  .77+)   
260416 H01  .01+  .08-    260416 104  .05+  .59-    260416 I93( .62-  .26+)   

Ephemerides (geocentric):
Date (UTC) HH   RA             Dec           delta  r     elong  mag " sig PA
---- --------  ------------   ------------  ------ ------ -----  --- --------
2026 04 17 00  10 47 57.986   +14 15 52.77  .02824 1.0225 131.0 20.2 .220 132
2026 04 17 01  10 48 42.175   +14 32 38.49  .02824 1.0225 131.0 20.2 .279  91
2026 04 17 02  10 49 26.484   +14 49 23.56  .02824 1.0225 131.0 20.2 .429  70
2026 04 17 03  10 50 10.912   +15 06 07.90  .02824 1.0225 131.0 20.2 .622  60
2026 04 17 04  10 50 55.459   +15 22 51.43  .02825 1.0225 131.0 20.2 .841  54
2026 04 17 05  10 51 40.124   +15 39 34.06  .02825 1.0225 131.0 20.2 1.08  50
2026 04 17 06  10 52 24.906   +15 56 15.72  .02826 1.0225 130.9 20.2 1.34  48
2026 04 17 07  10 53 09.806   +16 12 56.33  .02826 1.0225 130.9 20.2 1.61  46
2026 04 17 08  10 53 54.821   +16 29 35.80  .02827 1.0225 130.9 20.2 1.90  45
2026 04 17 09  10 54 39.953   +16 46 14.07  .02828 1.0225 130.9 20.2 2.21  44
2026 04 17 10  10 55 25.200   +17 02 51.04  .02829 1.0225 130.8 20.2 2.53  43
2026 04 17 11  10 56 10.561   +17 19 26.64  .02830 1.0225 130.8 20.2 2.87  42
2026 04 17 12  10 56 56.036   +17 36 00.80  .02831 1.0226 130.8 20.2 3.22  42
2026 04 17 13  10 57 41.624   +17 52 33.43  .02832 1.0226 130.8 20.2 3.59  41
2026 04 17 14  10 58 27.325   +18 09 04.46  .02833 1.0226 130.7 20.2 3.97  41
2026 04 17 15  10 59 13.138   +18 25 33.81  .02834 1.0226 130.7 20.2 4.37  40
2026 04 17 16  10 59 59.062   +18 42 01.41  .02836 1.0226 130.7 20.2 4.79  40
2026 04 17 17  11 00 45.096   +18 58 27.17  .02837 1.0226 130.6 20.2 5.22  40
2026 04 17 18  11 01 31.240   +19 14 51.02  .02839 1.0226 130.6 20.2 5.66  40
2026 04 17 19  11 02 17.493   +19 31 12.90  .02841 1.0226 130.5 20.2 6.12  39
2026 04 17 20  11 03 03.855   +19 47 32.71  .02843 1.0226 130.5 20.3 6.59  39
2026 04 17 21  11 03 50.324   +20 03 50.39  .02845 1.0226 130.5 20.3 7.08  39
2026 04 17 22  11 04 36.899   +20 20 05.88  .02847 1.0226 130.4 20.3 7.58  39
2026 04 17 23  11 05 23.581   +20 36 19.08  .02849 1.0226 130.4 20.3 8.09  39
2026 04 18 00  11 06 10.368   +20 52 29.94  .02851 1.0227 130.3 20.3 8.62  39
2026 04 18 01  11 06 57.259   +21 08 38.38  .02853 1.0227 130.3 20.3 9.16  39
2026 04 18 02  11 07 44.253   +21 24 44.33  .02855 1.0227 130.2 20.3 9.72  39
2026 04 18 03  11 08 31.350   +21 40 47.72  .02858 1.0227 130.2 20.3 10.3  38
2026 04 18 04  11 09 18.549   +21 56 48.49  .02861 1.0227 130.1 20.3 10.9  38
2026 04 18 05  11 10 05.849   +22 12 46.56  .02863 1.0227 130.1 20.3 11.5  38
2026 04 18 06  11 10 53.249   +22 28 41.87  .02866 1.0227 130.0 20.3 12.1  38
2026 04 18 07  11 11 40.747   +22 44 34.35  .02869 1.0227 130.0 20.3 12.7  38
2026 04 18 08  11 12 28.344   +23 00 23.95  .02872 1.0227 129.9 20.3 13.3  38
2026 04 18 09  11 13 16.039   +23 16 10.58  .02875 1.0227 129.8 20.3 14.0  38
2026 04 18 10  11 14 03.829   +23 31 54.20  .02878 1.0227 129.8 20.3 14.6  38
2026 04 18 11  11 14 51.715   +23 47 34.74  .02881 1.0228 129.7 20.3 15.3  38
2026 04 18 12  11 15 39.696   +24 03 12.13  .02884 1.0228 129.7 20.3 16.0  38
2026 04 18 13  11 16 27.769   +24 18 46.32  .02888 1.0228 129.6 20.3 16.7  38
2026 04 18 14  11 17 15.936   +24 34 17.25  .02891 1.0228 129.5 20.3 17.4  38
2026 04 18 15  11 18 04.193   +24 49 44.85  .02895 1.0228 129.5 20.3 18.1  38
2026 04 18 16  11 18 52.541   +25 05 09.08  .02898 1.0228 129.4 20.3 18.8  38
2026 04 18 17  11 19 40.978   +25 20 29.88  .02902 1.0228 129.3 20.3 19.5  38
2026 04 18 18  11 20 29.504   +25 35 47.18  .02906 1.0228 129.3 20.3 20.3  38
2026 04 18 19  11 21 18.117   +25 51 00.94  .02910 1.0228 129.2 20.3 21.0  38
2026 04 18 20  11 22 06.816   +26 06 11.11  .02914 1.0228 129.1 20.3 21.8  38
2026 04 18 21  11 22 55.600   +26 21 17.62  .02918 1.0229 129.1 20.3 22.6  38
2026 04 18 22  11 23 44.469   +26 36 20.44  .02922 1.0229 129.0 20.4 23.3  38
2026 04 18 23  11 24 33.420   +26 51 19.50  .02926 1.0229 128.9 20.4 24.1  39